Starlink 3635

operational
NORAD ID: 51981 Int'l Des: 2022-025 Owner: SPXS Country: US Constellation: starlink
LEOCIRCULAR

Über Starlink 3635

Beschreibung wird geladen...

Live-Position

3D-Globus wird geladen...

Nächste Überflüge

Höhenverlauf

Altitude vs Time

uPlot chart will show altitude changes over time

Zweizeiliger Elementsatz

1 51981U 22025AB 25353.53108345 .00000277 00000-0 35510-4 0 9996
2 51981 53.2190 38.9674 0001342 82.2631 277.8513 15.08835374208956
Epoch: 19. Dez. 2025 • Age: 17 hours

Aktueller Status

Höhe 539.7 km
Geschwindigkeit 7.59 km/s
Subsatellitenpunkt 12.16°N, 37.02°E
Startdatum 9. März 2022
Alter 3.7 years
Typ internet

Technische Details

Klassifizierung Payload
Masse 297.00 kg
Trockenmasse 275.00 kg
Gesamtmasse 297.00 kg
Länge 0.20 m
Durchmesser 2.80 m
Spannweite 9.00 m
Form Box + pan
Hersteller SPXS
Bus-Typ Starlink
Phasenstatus In Orbit
Besitzer/Staat SPXS/US

Große Konstellationen

Loading constellations...